sat.trackr.live / text

‹ back to catalog

STARLINK-34947

NORAD 65184 · 2025-175L

PAYLOAD ACTIVE UNKNOWN

§ Identity

Operator
Country
US
Launch date
2025-08-14
Launch site
AFWTR
Launch vehicle
Mass (kg)
RCS (m²)

Purposes: comms

External: N2YO · Heavens-Above · Gunter

§ Orbital elements

Epoch: 2026-09-20T22:07:41.642400Z

Period
93.91 min
Inclination
97.2821°
Eccentricity
0.0001907
Mean motion
15.33455127 rev/d
Perigee alt
464.2 km
Apogee alt
466.8 km
Semi-major
6,843.7 km
B*
3.5890e-4
RAAN
132.8387°
Arg perigee
80.7119°
Mean anomaly
279.4339°
Rev number
6,219

§ Raw data

STARLINK-349471 65184U 25175L   26263.92200975  .00011533  00000+0  35890-3 0  99972 65184  97.2821 132.8387 0001907  80.7119 279.4339 15.33455127 62191

JSON: /api/v1/satellites/65184 · /tle

For live sub-satellite position, see the globe view (requires WebGL).

§ Visibility from observer

Set your observer location to see the next 7 days of passes ≥ 10°. The values pass through the URL so the page stays shareable.

No JS? Fill the form by hand. The geolocation button needs JavaScript.